This is the latest recevied weather packets stored in our database for station/object KD4EG. If no packets are shown the sender has not sent any weather packets the latest 10 day(s).
| Time | Temp. | Humidity | Pressure | Rain* | Wind** | Luminosity | Snow |
|---|---|---|---|---|---|---|---|
| 1777929507 | 25° C | 42% | 1014.1 hPa | 0 mm | - | 357 W/m² | - |
| 1777929202 | 25.56° C | 42% | 1014.1 hPa | 0 mm | - | 347 W/m² | - |
| 1777928900 | 25° C | 42% | 1013.7 hPa | 0 mm | - | 374 W/m² | - |
| 1777928597 | 24.44° C | 43% | 1014 hPa | 0 mm | - | 372 W/m² | - |
| 1777927087 | 25° C | 42% | 1013.9 hPa | 0 mm | - | 514 W/m² | - |
| 1777924963 | 23.33° C | 44% | 1014.6 hPa | 0 mm | - | 288 W/m² | - |
| 1777924356 | 23.33° C | 45% | 1014.7 hPa | 0 mm | - | 360 W/m² | - |
| 1777924054 | 23.89° C | 46% | 1014.6 hPa | 0 mm | - | 383 W/m² | - |
| 1777923446 | 23.33° C | 45% | 1014.6 hPa | 0 mm | - | 432 W/m² | - |
| 1777923144 | 23.33° C | 45% | 1014.6 hPa | 0 mm | - | 387 W/m² | - |
| 1777922842 | 22.78° C | 45% | 1015.1 hPa | 0 mm | - | 357 W/m² | - |
| 1777922540 | 22.78° C | 46% | 1014.9 hPa | 0 mm | - | 433 W/m² | - |
| 1777922238 | 22.78° C | 45% | 1015.2 hPa | 0 mm | - | 507 W/m² | - |
| 1777921630 | 22.78° C | 46% | 1015.3 hPa | 0 mm | - | 616 W/m² | - |
| 1777920416 | 22.78° C | 45% | 1015.3 hPa | 0 mm | - | 563 W/m² | - |
| 1777919808 | 21.67° C | 47% | 1015.2 hPa | 0 mm | - | 616 W/m² | - |
| 1777919505 | 21.67° C | 47% | 1015.6 hPa | 0 mm | - | 310 W/m² | - |
| 1777919203 | 21.67° C | 47% | 1015.7 hPa | 0 mm | - | 371 W/m² | - |
| 1777918598 | 21.67° C | 47% | 1015.8 hPa | 0 mm | - | 275 W/m² | - |
| 1777918295 | 21.67° C | 46% | 1015.8 hPa | 0 mm | - | 142 W/m² | - |
| 1777917994 | 21.67° C | 46% | 1015.9 hPa | 0 mm | - | 325 W/m² | - |
| 1777917692 | 21.67° C | 46% | 1016 hPa | 0 mm | - | 217 W/m² | - |
| 1777916177 | 22.78° C | 43% | 1016.2 hPa | 0 mm | - | 416 W/m² | - |
| 1777915875 | 22.22° C | 44% | 1016.3 hPa | 0 mm | - | 770 W/m² | - |
| 1777915571 | 22.22° C | 44% | 1016 hPa | 0 mm | - | 757 W/m² | - |
* Rain latest hour (hover to see other rain measurements)
** Current wind speed in m/s (hover to see current wind gust speed)